Location: Aldenham
(51.6667°N, 0.3500°W)
Time: 11:59:21
(UTC+00:00)

Altair - Pass Details

Date: 16 February 2026
Orbit: 1502 x 1682 km, 47.2° (Epoch: 17 March)

Event Time Altitude Azimuth Distance (km) Brightness Sun altitude
Rises 12:02:25 0° 287° (WNW) 4,755 9.9 26.0°
Reaches altitude 10° 12:06:10 10° 274° (W) 3,797 9.6 26.1°
Maximum altitude 12:13:23 25° 226° (SW) 2,862 9.8 26.1°
Drops below altitude 10° 12:20:47 10° 177° (S) 3,888 11.5 26.1°
Sets 12:24:43 0° 164° (SSE) 4,893 11.3 26.1°
